Find Starlink 37981

NORAD ID: 100282 Int'l Des: 2026-183 Owner: SPXS Country: US Constellation: starlink operational

Aktuelle Ansicht

3D-Globus wird geladen...

About Starlink 37981

Starlink 37981 (NORAD 100282) is a starlink constellation satellite launched Aug 11, 2026 by SPXS of US. with a mass of 575.00 kg.

Nächste Überflüge

Passes for default location (London). Set your location on the main map for personalized predictions.

Höhenverlauf

Loading altitude history...

Zweizeiliger Elementsatz

1 A0282U 26183L 26255.66125648 -.00359017 00000-0 -25590-2 0 9990
2 A0282 53.1576 295.9417 0001406 34.4553 325.6558 15.74131470 5072
Epoch: 12. Sept. 2026 • Age: 190 hours

Aktueller Status

Höhe 365.1 km
Apogäum / Perigäum N/A
Geschwindigkeit 7.70 km/s
Subsatellitenpunkt 42.08°N, 169.92°W
Startdatum 11. Aug. 2026
Alter 0.1 years
Typ internet

Technische Details

Klassifizierung Payload
Masse 575.00 kg
Trockenmasse 530.00 kg
Länge 0.30 m
Spannweite 29.00 m
Form ? Box + pan
Hersteller SPXS
Bus-Typ Starlink V2MO
Phasenstatus In Orbit
Besitzer/Staat SPXS/US

Most Searched